Weather in Salt Lake City

United States     40˚46′35″N   111˚56′56″W
temp.,
°C
wind,
m/s
gust,
m/s
humid.,
%
clouds,
%
prec.,
mm/h
press.,
hPa
HPBL,
m
30 november, mon
mon3023:00+1˚se12510 0.0 103222
02:00se11430 0.0 103022
05:00se22370 0.0 103124
08:00sse233239 0.0 102935
11:00+6˚sse232420 0.0 1027414
14:00+8˚s24214 0.0 1021713
17:00+4˚wnw11382 0.0 102222
20:00+2˚sse113867 0.0 102122
1 december, tue
tue123:00+2˚wnw115033 0.0 102422
02:00+1˚nw226327 0.0 102835
05:00wnw237339 0.0 103173
08:00wsw117536 0.0 103238
11:00+3˚nw335418 0.0 1033770
14:00+4˚nnw45370 0.0 10291034
17:00+1˚nw35530 0.0 1030292
20:00nw22560 0.0 1032184
2 december, wed
wed223:00−1˚nnw11600 0.0 103330
02:00−1˚nnw11620 0.0 103338
05:00−2˚wnw11650 0.0 103351
08:00−2˚wnw11680 0.0 103364
11:00+1˚wnw22520 0.0 1033623
14:00+4˚n37280 0.0 10321478
17:00+1˚nnw35340 0.0 1033264
20:00−1˚n01430 0.0 103660
3 december, thu
thu323:00−2˚e11430 0.0 103643
02:00−2˚ese11390 0.0 103638
05:00−2˚se12360 0.0 103532
08:00−2˚se12360 0.0 103542
11:00+2˚se11280 0.0 1033432
14:00+4˚n21270 0.0 1030556
17:00+1˚nnw22370 0.0 103198
20:00−1˚w11450 0.0 103226
4 december, fri
fri423:00−1˚w01440 0.0 103321
02:00−2˚se01450 0.0 103421
05:00−1˚sse11410 0.0 103421
08:00−1˚se11400 0.0 103521
11:00+3˚ne00290 0.0 1034396
14:00+5˚nnw22280 0.0 1031550
17:00+1˚nnw23420 0.0 1033107
20:00−1˚wnw01490 0.0 103425